Weather History for KLFT - December, 2014

Change the Weather History Date:

Sunday, December 28, 2014

  Actual Average Record
Temperature  
Mean Temperature 58 °F 53 °F  
Max Temperature 67 °F 62 °F 81 °F (1984)
Min Temperature 49 °F 43 °F 20 °F (1925)
Degree Days  
Heating Degree Days 7 13  
Month to date heating degree days 217 316  
Since 1 July heating degree days 518 515  
Growing Degree Days 7 (Base 50)    
Moisture  
Dew Point 52 °F    
Average Humidity 92    
Maximum Humidity 100    
Minimum Humidity 83    
Precipitation  
Precipitation 0.21 in 0.19 in 3.22 in (1900)
Month to date precipitation 3.50 5.02  
Year to date precipitation 60.00 59.94  
Snow  
Snow 0.00 in 0.00 in T in (1939)
Month to date snowfall 0.0 0.0  
Since 1 July snowfall 0.0 0.0  
Snow Depth 0.00 in    
Sea Level Pressure  
Sea Level Pressure 30.10 in    
Wind  
Wind Speed 10 mph (North)    
Max Wind Speed 15 mph    
Max Gust Speed 18 mph    
Visibility 9 miles    
Events Rain    
T = Trace of Precipitation, MM = Missing Value Source: NWS Daily Summary

Daily Weather History Graph

Daily Weather History Graph

Search for Another Location

Airport or City:

Trip Planner

Search our weather history database for the weather conditions in past years. The results will help you decide how hot, cold, wet, or windy it might be!

Date:

Astronomy

Dec. 28, 2014 Rise Set
Actual Time 7:03 AM CST 5:16 PM CST
Civil Twilight 6:36 AM CST 5:42 PM CST
Nautical Twilight 6:06 AM CST 6:12 PM CST
Astronomical Twilight 5:37 AM CST 6:41 PM CST
Moon 11:55 AM CST (12/28) No Moon Set
Length of Visible Light 11h 05m
Length of Day
10h 12m
Waxing Crescent, 50% of the Moon is Illuminated
Dec 28
Waxing Crescent
Dec 28
First Quarter
Jan 4
Full
Jan 13
Last Quarter
Jan 20
New

Hourly Weather History & Observations

Time (CST) Temp. Dew Point Humidity Pressure Visibility Wind Dir Wind Speed Gust Speed Precip Events Conditions
12:04 AM 66.9 °F 66.0 °F 97% 30.06 in 10.0 mi NW 6.9 mph - N/A   Overcast
12:27 AM 66.0 °F 66.0 °F 100% 30.06 in 10.0 mi NW 4.6 mph - N/A   Overcast
12:53 AM 64.9 °F - N/A% 30.06 in 10.0 mi NW 12.7 mph - N/A   Overcast
1:08 AM 63.0 °F - N/A% 30.07 in 10.0 mi NW 13.8 mph - 0.00 in Rain Light Rain
1:53 AM 60.1 °F 57.9 °F 93% 30.09 in 10.0 mi NW 11.5 mph - 0.00 in   Overcast
2:53 AM 57.0 °F 55.9 °F 96% 30.09 in 10.0 mi NW 11.5 mph - 0.00 in   Overcast
3:11 AM 57.0 °F 55.0 °F 93% 30.10 in 10.0 mi NNW 12.7 mph - N/A   Overcast
3:53 AM 55.9 °F 54.0 °F 93% 30.09 in 10.0 mi North 9.2 mph - N/A   Overcast
4:53 AM 55.0 °F 52.0 °F 89% 30.11 in 10.0 mi NNW 9.2 mph - N/A   Overcast
5:53 AM 54.0 °F 51.1 °F 90% 30.09 in 10.0 mi NNE 11.5 mph - N/A   Overcast
6:53 AM 54.0 °F 52.0 °F 93% 30.12 in 10.0 mi North 9.2 mph - N/A   Overcast
7:08 AM 54.0 °F 51.1 °F 90% 30.12 in 10.0 mi NNE 12.7 mph - N/A   Overcast
7:15 AM 53.1 °F 51.1 °F 93% 30.12 in 10.0 mi NNE 12.7 mph - N/A   Overcast
7:53 AM 53.1 °F 50.0 °F 89% 30.13 in 10.0 mi North 10.4 mph - N/A   Overcast
8:53 AM 53.1 °F 50.0 °F 89% 30.15 in 10.0 mi NNE 12.7 mph - N/A   Overcast
9:53 AM 54.0 °F 50.0 °F 86% 30.17 in 10.0 mi North 12.7 mph - N/A   Overcast
10:53 AM 54.0 °F 50.0 °F 86% 30.14 in 10.0 mi NNE 12.7 mph - N/A   Overcast
11:53 AM 54.0 °F 50.0 °F 86% 30.12 in 10.0 mi North 11.5 mph - N/A   Overcast
12:53 PM 55.0 °F 50.0 °F 83% 30.08 in 10.0 mi NNE 11.5 mph - N/A   Overcast
1:35 PM 54.0 °F 50.0 °F 86% 30.08 in 10.0 mi North 8.1 mph - N/A   Overcast
1:53 PM 54.0 °F 50.0 °F 86% 30.08 in 10.0 mi North 8.1 mph - N/A   Overcast
2:07 PM 54.0 °F 50.0 °F 86% 30.09 in 10.0 mi North 10.4 mph - N/A   Overcast
2:53 PM 53.1 °F 48.9 °F 86% 30.10 in 10.0 mi North 11.5 mph - N/A   Overcast
3:28 PM 53.1 °F 50.0 °F 89% 30.08 in 10.0 mi NNE 8.1 mph - N/A   Overcast
3:53 PM 53.1 °F 50.0 °F 89% 30.09 in 10.0 mi NE 5.8 mph - N/A   Overcast
4:10 PM 52.0 °F 48.9 °F 89% 30.09 in 6.0 mi NNE 5.8 mph - N/A   Overcast
4:53 PM 52.0 °F 50.0 °F 93% 30.09 in 7.0 mi NNE 6.9 mph - 0.01 in Rain Light Rain
5:53 PM 52.0 °F 51.1 °F 97% 30.09 in 8.0 mi North 9.2 mph - 0.02 in Rain Light Rain
6:53 PM 51.1 °F 51.1 °F 100% 30.10 in 10.0 mi NNE 8.1 mph - 0.03 in Rain Light Rain
7:53 PM 50.0 °F - N/A% 30.14 in 6.0 mi NNW 10.4 mph - 0.03 in Rain Light Rain
8:53 PM 50.0 °F - N/A% 30.15 in 4.0 mi NNE 5.8 mph - 0.10 in Rain Rain
9:13 PM 48.9 °F - N/A% 30.14 in 8.0 mi NE 5.8 mph - 0.01 in Rain Light Rain
9:53 PM 48.9 °F - N/A% 30.11 in 10.0 mi ENE 4.6 mph - 0.02 in   Overcast
10:20 PM 48.9 °F - N/A% 30.10 in 10.0 mi NE 6.9 mph - 0.00 in Rain Light Rain
10:53 PM 50.0 °F - N/A% 30.13 in 10.0 mi NW 9.2 mph - 0.00 in   Overcast
11:53 PM 48.9 °F - N/A% 30.11 in 10.0 mi North 10.4 mph - N/A   Overcast